OBJECT C (43829 NORAD) Tracking and Keplerian Element Data

This shows tracking and keplerian element data for the satellite.

Feedback or suggestion? Click here.




ElementValue
Catalog43829
NameOBJECT C
Epoch Orbit83
Epoch Day344.90852544
Epoch Year2018
RAAN216.2181
Inclination51.6232
Eccentricity0.0015706
Argument of Perigee68.526
Mean Anonmoly291.9842
Mean Motion16.42923343
Decay Rate0.30775351
L11 43829U 18101C 18344.90852544 .30775351 12573-4 10604-2 0 9990
L22 43829 51.6232 216.2181 0015706 68.5260 291.9842 16.42923343 837



Live tracking and technical data element details for OBJECT C (NORAD 43829). OBJECT C can be tracked NOW for your location showing map with azimuth and elevation plus other details from your city location.







IsCatalogInMostPopularTable: catalog: 43829, numindb: 411
Update: records affected: 1



GetName: 43829 OBJECT C

Hit Count: updated at: Thu, 15 May 2025 08:57:36 GMT